User: anonymous   Login
Location: Bojarzin Observatory
(39.7980°N, 89.7627°W)
Time: 12:10:50
(UTC-05:00)
Language:

ISS - Orbit

View from above orbital plane
View from above orbital plane
View from above satellite
View from above satellite

Ground track
Ground track

The orbit data is extracted from the following two-line orbital elements,

1 25544U 98067A   14296.48450231  .00020642  00000-0  35877-3 0  2865
2 25544 051.6471 183.6211 0002351 289.5247 071.5442 15.50776014911231
Epoch (UTC): 23 October 2014 11:37:41
Eccentricity: 0.0002351
inclination: 51.6471°
perigee height: 413 km
apogee height: 416 km
right ascension of ascending node: 183.6211°
argument of perigee: 289.5247°
revolutions per day: 15.50776014
mean anomaly at epoch: 71.5442°
orbit number at epoch: 91123

The dashed part of the orbit path shows where the satellite is in the earth's shadow,  

DLR